Weather reports worldwide

Advertisment
Pontevedra, Spain (8044): temperature & dewpoint: 19.09.2020 03:00:00 - 25.09.2020 03:00:00 (CEST)Pontevedra, Spain (8044): wind speed: 19.09.2020 03:00:00 - 25.09.2020 03:00:00 (CEST)Pontevedra, Spain (8044): wind direction: 19.09.2020 03:00:00 - 25.09.2020 03:00:00 (CEST)Pontevedra, Spain (8044): reduced air pressure: 19.09.2020 03:00:00 - 25.09.2020 03:00:00 (CEST)Pontevedra, Spain (8044): visibility: 19.09.2020 03:00:00 - 25.09.2020 03:00:00 (CEST)Pontevedra, Spain (8044): precipitation: 19.09.2020 03:00:00 - 25.09.2020 03:00:00 (CEST)
Date & Time tt [°C] td [°C] ff [km/h] ff [kn] dd ppp [hPa] vv [km] rr [mm]
25.09.2020 03:00:00 11,8 10,5 4 2 NNE 1023,2 20 0,0
25.09.2020 02:00:00 12,1 10,2 4 2 N 1022,6 20 -
25.09.2020 01:00:00 12,3 10,7 4 2 E 1022,1 18 0,0
25.09.2020 00:00:00 13,1 11,3 4 2 W 1021,9 18 0,2
24.09.2020 23:00:00 13,6 10,8 4 2 W 1021,2 20 -
24.09.2020 22:00:00 14,1 11,1 5 3 WNW 1020,6 20 0,0
24.09.2020 21:00:00 14,9 12,2 4 2 W 1019,7 20 0,0
24.09.2020 20:00:00 15,5 13,3 9 5 SW 1019,0 20 -
24.09.2020 19:00:00 15,6 13,6 13 7 SW 1018,3 16 0,8
24.09.2020 18:00:00 16,7 13,0 13 7 SW 1017,7 15 0,2
24.09.2020 17:00:00 16,9 14,5 8 4 SSW 1017,8 20 -
24.09.2020 16:00:00 14,7 12,9 11 6 S 1018,2 20 1,0
24.09.2020 15:00:00 18,3 12,7 13 7 SSW 1017,3 20 0,0
24.09.2020 14:00:00 16,1 12,5 13 7 SW 1017,5 20 -
24.09.2020 13:00:00 16,3 13,2 13 7 SW 1017,3 20 0,8
24.09.2020 12:00:00 16,5 12,6 16 9 SW 1016,8 20 0,2
24.09.2020 11:00:00 15,6 15,0 4 2 S 1016,4 10 -
24.09.2020 10:00:00 14,3 13,8 0 0 N 1015,9 19 0,0
24.09.2020 09:00:00 13,3 12,5 4 2 NNE 1015,4 18 0,0
24.09.2020 08:00:00 13,5 12,7 2 1 ESE 1015,4 10 -
24.09.2020 07:00:00 14,1 13,1 0 0 N 1015,2 19 0,0
24.09.2020 06:00:00 14,7 13,6 4 2 SE 1015,0 20 0,0
24.09.2020 05:00:00 15,2 14,1 2 1 SSE 1015,2 20 -
24.09.2020 04:00:00 15,2 14,2 2 1 SSE 1015,5 20 0,0
24.09.2020 03:00:00 15,4 14,4 5 3 S 1015,4 20 0,0
24.09.2020 02:00:00 15,3 14,3 4 2 SE 1015,4 20 -
24.09.2020 01:00:00 15,4 14,3 5 3 S 1015,5 20 0,0
24.09.2020 00:00:00 15,8 14,3 4 2 S 1015,3 17 0,2
23.09.2020 23:00:00 16,5 13,4 2 1 S 1014,9 20 -
23.09.2020 22:00:00 16,4 13,7 4 2 S 1014,7 20 0,0
23.09.2020 21:00:00 16,8 13,9 5 3 SSE 1014,0 20 0,0
23.09.2020 20:00:00 17,8 14,3 9 5 SW 1013,7 12 -
23.09.2020 19:00:00 19,1 14,4 9 5 SW 1013,4 20 0,0
23.09.2020 18:00:00 19,6 13,5 15 8 SW 1013,1 20 0,0
23.09.2020 17:00:00 19,9 14,9 16 9 WSW 1012,9 15 -
23.09.2020 16:00:00 21,1 15,6 9 5 SSW 1012,9 20 0,0
23.09.2020 15:00:00 19,1 15,8 15 8 SW 1013,1 20 0,0
23.09.2020 14:00:00 18,7 15,9 8 4 SSW 1013,0 15 -
23.09.2020 13:00:00 18,4 17,1 11 6 SW 1013,0 18 0,0
23.09.2020 12:00:00 17,9 17,3 5 3 SSW 1012,6 14 0,0
23.09.2020 11:00:00 17,7 17,2 2 1 SSW 1012,2 8 -
23.09.2020 10:00:00 17,3 16,8 5 3 SSE 1011,7 7 0,0
23.09.2020 09:00:00 16,9 16,4 4 2 S 1011,4 8 0,0
23.09.2020 08:00:00 17,2 16,9 4 2 SSE 1010,8 5 -
23.09.2020 07:00:00 17,0 16,5 2 1 SW 1010,7 16 1,0
23.09.2020 06:00:00 17,0 16,5 2 1 SSE 1010,8 19 0,0
23.09.2020 05:00:00 16,9 16,4 4 2 S 1010,7 14 -
23.09.2020 04:00:00 17,1 16,6 5 3 SSE 1011,1 20 0,0
23.09.2020 03:00:00 17,6 17,1 9 5 SSW 1010,9 4,6 0,6
23.09.2020 02:00:00 17,9 17,4 11 6 SW 1010,9 3,4 -
23.09.2020 01:00:00 17,2 16,6 13 7 S 1011,1 4,5 13,0
23.09.2020 00:00:00 17,2 16,1 16 9 SSE 1011,1 12 1,0
22.09.2020 23:00:00 17,4 16,3 13 7 S 1012,0 19 -
22.09.2020 22:00:00 17,6 16,5 2 1 SW 1012,2 18 2,0
22.09.2020 21:00:00 18,2 16,7 4 2 SSW 1012,2 1,2 5,0
22.09.2020 20:00:00 19,3 16,1 4 2 WSW 1012,0 6 -
22.09.2020 19:00:00 20,1 15,7 2 1 SW 1012,3 19 0,0
22.09.2020 18:00:00 20,9 15,7 5 3 SSW 1012,6 18 0,0
22.09.2020 17:00:00 20,6 15,6 9 5 SW 1013,5 10 -
22.09.2020 16:00:00 21,3 14,7 8 4 SW 1013,8 20 0,0
22.09.2020 15:00:00 22,6 13,4 8 4 SSW 1014,5 20 0,0
22.09.2020 14:00:00 22,3 13,9 9 5 SSW 1014,8 15 -
22.09.2020 13:00:00 20,9 13,3 8 4 S 1015,4 20 0,0
22.09.2020 12:00:00 18,0 14,5 4 2 NNW 1016,1 20 0,0
22.09.2020 11:00:00 14,8 13,2 8 4 NE 1016,7 10 -
22.09.2020 10:00:00 12,9 12,0 2 1 N 1016,7 20 0,0
22.09.2020 09:00:00 11,8 10,9 5 3 ENE 1016,7 20 0,0
22.09.2020 08:00:00 12,1 11,2 4 2 E 1016,6 10 -
22.09.2020 07:00:00 12,1 11,0 8 4 E 1016,6 20 0,0
22.09.2020 06:00:00 12,4 11,3 4 2 E 1016,7 19 0,0
22.09.2020 05:00:00 12,8 11,7 9 5 ENE 1016,7 20 -
22.09.2020 04:00:00 13,1 11,8 2 1 ENE 1017,1 18 0,0
22.09.2020 03:00:00 13,7 12,3 0 0 N 1017,6 16 0,0
22.09.2020 02:00:00 14,4 12,9 5 3 E 1018,1 15 -
22.09.2020 01:00:00 15,1 13,6 9 5 ENE 1018,5 18 0,0
22.09.2020 00:00:00 15,4 13,8 5 3 ENE 1018,8 19 0,0
21.09.2020 23:00:00 16,1 14,3 5 3 E 1018,7 19 -
21.09.2020 22:00:00 16,7 14,7 2 1 SE 1018,5 18 0,0
21.09.2020 21:00:00 17,5 14,8 2 1 S 1018,1 18 0,0
21.09.2020 20:00:00 19,4 14,9 8 4 SW 1018,2 6 -
21.09.2020 19:00:00 20,9 14,5 9 5 SW 1018,0 12 0,0
21.09.2020 18:00:00 21,7 15,1 8 4 S 1018,0 20 0,0
21.09.2020 17:00:00 21,5 15,1 11 6 SW 1018,1 10 -
21.09.2020 16:00:00 21,1 14,7 16 9 SW 1018,2 18 0,0
21.09.2020 15:00:00 21,8 15,6 9 5 WSW 1018,6 20 0,0
21.09.2020 14:00:00 21,6 15,2 9 5 WSW 1018,7 10 -
21.09.2020 13:00:00 20,9 15,0 8 4 SW 1019,0 20 0,0
21.09.2020 12:00:00 18,9 15,4 5 3 SW 1019,3 20 0,0
21.09.2020 11:00:00 15,5 13,9 4 2 NW 1019,6 10 -
21.09.2020 10:00:00 14,5 13,5 5 3 ENE 1019,4 20 0,0
21.09.2020 09:00:00 12,8 11,9 5 3 ENE 1019,5 20 0,0
21.09.2020 08:00:00 13,2 12,3 2 1 E 1019,0 6 -
21.09.2020 07:00:00 13,6 12,8 9 5 ENE 1018,6 20 0,0
21.09.2020 06:00:00 13,6 12,8 5 3 E 1018,5 20 0,0
21.09.2020 05:00:00 13,9 13,1 9 5 ENE 1018,5 11 -
21.09.2020 04:00:00 14,8 13,8 5 3 ENE 1018,7 19 0,0
21.09.2020 03:00:00 15,7 14,6 5 3 NNE 1019,0 18 0,0
21.09.2020 02:00:00 15,9 14,6 5 3 SE 1019,1 20 -
21.09.2020 01:00:00 16,4 15,1 4 2 NE 1019,1 20 0,0
21.09.2020 00:00:00 16,3 14,8 2 1 NE 1019,4 20 0,0
20.09.2020 23:00:00 17,2 15,5 4 2 SSE 1019,5 20 -
20.09.2020 22:00:00 17,5 16,2 2 1 S 1019,3 20 0,0
20.09.2020 21:00:00 17,6 16,1 5 3 SSW 1018,4 20 0,0
20.09.2020 20:00:00 17,7 16,2 8 4 SSW 1018,2 10 -
20.09.2020 19:00:00 18,2 16,4 4 2 S 1017,9 15 0,0
20.09.2020 18:00:00 18,6 16,0 8 4 SW 1017,7 20 0,0
20.09.2020 17:00:00 20,0 16,6 13 7 SW 1017,1 10 -
20.09.2020 16:00:00 19,6 16,6 8 4 S 1017,1 19 0,0
20.09.2020 15:00:00 19,9 17,7 13 7 SW 1017,1 19 0,0
20.09.2020 14:00:00 19,8 17,6 8 4 SW 1017,0 10 -
20.09.2020 13:00:00 19,6 17,0 8 4 SW 1016,9 20 0,0
20.09.2020 12:00:00 20,1 17,3 4 2 S 1016,5 20 0,0
20.09.2020 11:00:00 18,5 17,0 4 2 NW 1016,1 12 -
20.09.2020 10:00:00 17,2 16,1 4 2 E 1015,7 20 0,0
20.09.2020 09:00:00 16,9 15,8 4 2 NE 1015,4 9 0,0
20.09.2020 08:00:00 16,9 15,6 4 2 ENE 1014,7 10 -
20.09.2020 07:00:00 17,3 15,8 2 1 ENE 1014,4 20 0,0
20.09.2020 06:00:00 17,3 15,8 4 2 ENE 1014,2 20 0,0
20.09.2020 05:00:00 17,6 16,1 0 0 N 1014,2 20 -
20.09.2020 04:00:00 17,6 16,1 2 1 NW 1014,4 20 0,0
20.09.2020 03:00:00 17,8 16,1 2 1 S 1014,4 20 0,0
20.09.2020 02:00:00 18,0 16,0 2 1 NNE 1014,3 19 -
20.09.2020 01:00:00 18,0 16,0 4 2 E 1014,5 20 0,0
20.09.2020 00:00:00 18,3 15,9 4 2 NE 1014,6 20 0,0
19.09.2020 23:00:00 18,4 15,8 4 2 ENE 1014,7 20 -
19.09.2020 22:00:00 18,5 15,6 5 3 NE 1014,3 20 0,0
19.09.2020 21:00:00 19,0 15,5 2 1 N 1013,6 20 0,0
19.09.2020 20:00:00 19,7 15,8 4 2 SSW 1013,2 10 -
19.09.2020 19:00:00 20,9 15,4 8 4 SW 1012,7 20 0,0
19.09.2020 18:00:00 21,8 16,5 8 4 SW 1012,7 20 0,0
19.09.2020 17:00:00 22,2 17,3 8 4 SW 1012,8 12 -
19.09.2020 16:00:00 20,4 17,6 4 2 SW 1013,2 19 0,0
19.09.2020 15:00:00 19,4 17,4 8 4 SW 1013,6 20 0,6
19.09.2020 14:00:00 20,0 16,2 11 6 SW 1013,8 15 -
19.09.2020 13:00:00 20,3 16,9 5 3 SSW 1013,7 20 0,0
19.09.2020 12:00:00 18,6 16,6 2 1 SE 1013,5 20 0,0
19.09.2020 11:00:00 18,2 16,9 2 1 SSE 1012,9 10 -
19.09.2020 10:00:00 17,3 16,3 2 1 SSW 1012,5 20 0,0
19.09.2020 09:00:00 16,7 15,7 2 1 SSE 1011,9 13 0,0
19.09.2020 08:00:00 17,0 16,2 0 0 N 1011,2 15 -
19.09.2020 07:00:00 17,0 16,0 0 0 N 1010,6 12 0,4
19.09.2020 06:00:00 17,2 16,1 2 1 S 1010,2 11 0,0
19.09.2020 05:00:00 17,3 16,0 4 2 WSW 1009,5 13 -
19.09.2020 04:00:00 17,2 15,5 4 2 S 1009,2 20 0,0
19.09.2020 03:00:00 17,2 15,4 2 1 SSE 1008,5 20 0,0

tt = temperature
td = dewpoint
ff = wind speed
dd = wind direction
ppp = reduced air pressure
vv = visibility
rr = precipitation

Next stations